Weather History for KGCK - July, 2013

Change the Weather History Date:

Monday, July 8, 2013

  Actual Average Record
Temperature  
Mean Temperature 87 °F 78 °F  
Max Temperature 102 °F 92 °F 105 °F (1978)
Min Temperature 72 °F 64 °F 49 °F (1994)
Degree Days  
Heating Degree Days 0 0  
Month to date heating degree days 0 0  
Since 1 June heating degree days 12 16  
Since 1 July heating degree days 0 0  
Cooling Degree Days 22 13  
Month to date cooling degree days 111 101  
Year to date cooling degree days 649 442  
Since 1 June cooling degree days 502 353  
Growing Degree Days 36 (Base 50)    
Moisture  
Dew Point 53 °F    
Average Humidity 38    
Maximum Humidity 57    
Minimum Humidity 19    
Precipitation  
Precipitation 0.00 in 0.09 in 0.97 in (1992)
Month to date precipitation T 0.77  
Year to date precipitation 3.71 11.19  
Sea Level Pressure  
Sea Level Pressure 29.88 in    
Wind  
Wind Speed 13 mph (South)    
Max Wind Speed 28 mph    
Max Gust Speed 36 mph    
Visibility 10 miles    
Events      
T = Trace of Precipitation, MM = Missing Value Source: NWS Daily Summary

Daily Weather History Graph

Daily Weather History Graph

Search for Another Location

Airport or City:

Trip Planner

Search our weather history database for the weather conditions in past years. The results will help you decide how hot, cold, wet, or windy it might be!

Date:

Astronomy

Jul. 08, 2013 Rise Set
Actual Time 6:28 AM CDT 9:07 PM CDT
Civil Twilight 5:57 AM CDT 9:38 PM CDT
Nautical Twilight 5:18 AM CDT 10:17 PM CDT
Astronomical Twilight 4:35 AM CDT 11:00 PM CDT
Moon 6:57 AM CDT (7/8) 9:13 PM CDT (7/8)
Length of Visible Light 15h 41m
Length of Day
14h 39m
New Moon, 0% of the Moon is Illuminated
Jul 8
New Moon
Jul 15
First Quarter
Jul 22
Full
Jul 29
Last Quarter
Aug 6
New

Hourly Weather History & Observations

Time (CDT) Temp. Heat Index Dew Point Humidity Pressure Visibility Wind Dir Wind Speed Gust Speed Precip Events Conditions
12:54 AM 82.0 °F - 52.0 °F 35% 29.89 in 10.0 mi South 8.1 mph - N/A   Mostly Cloudy
1:54 AM 81.0 °F - 52.0 °F 36% 29.89 in 10.0 mi South 10.4 mph - N/A   Clear
2:54 AM 79.0 °F - 54.0 °F 42% 29.90 in 10.0 mi South 9.2 mph - N/A   Scattered Clouds
3:54 AM 77.0 °F - 54.0 °F 45% 29.91 in 10.0 mi Calm Calm - N/A   Clear
4:54 AM 75.0 °F - 54.0 °F 48% 29.93 in 10.0 mi Calm Calm - N/A   Scattered Clouds
5:54 AM 75.0 °F - 54.0 °F 48% 29.92 in 10.0 mi South 6.9 mph - N/A   Clear
6:54 AM 72.0 °F - 55.0 °F 55% 29.92 in 10.0 mi South 6.9 mph - N/A   Clear
7:54 AM 73.0 °F - 55.9 °F 55% 29.92 in 10.0 mi South 10.4 mph - N/A   Clear
8:54 AM 81.0 °F 80.8 °F 55.9 °F 42% 29.91 in 10.0 mi South 12.7 mph - N/A   Clear
9:54 AM 88.0 °F 86.1 °F 55.0 °F 32% 29.91 in 10.0 mi SSW 13.8 mph - N/A   Clear
10:54 AM 91.9 °F 89.5 °F 54.0 °F 27% 29.91 in 10.0 mi SSW 19.6 mph 25.3 mph N/A   Clear
11:54 AM 95.0 °F 92.5 °F 53.1 °F 24% 29.90 in 10.0 mi SSW 18.4 mph - N/A   Clear
12:54 PM 98.1 °F - 52.0 °F 21% 29.89 in 10.0 mi SW 18.4 mph 26.5 mph N/A   Clear
1:54 PM 100.0 °F - 51.1 °F 19% 29.87 in 10.0 mi SSW 19.6 mph 29.9 mph N/A   Clear
2:54 PM 100.0 °F - 51.1 °F 19% 29.85 in 10.0 mi South 19.6 mph 31.1 mph N/A   Clear
3:54 PM 100.0 °F - 51.1 °F 19% 29.85 in 10.0 mi South 16.1 mph 31.1 mph N/A   Clear
4:54 PM 100.9 °F - 50.0 °F 18% 29.83 in 10.0 mi SSE 16.1 mph 29.9 mph N/A   Clear
5:54 PM 100.0 °F - 50.0 °F 18% 29.82 in 10.0 mi South 18.4 mph 31.1 mph N/A   Clear
6:54 PM 98.1 °F - 50.0 °F 20% 29.82 in 10.0 mi South 19.6 mph - N/A   Clear
7:54 PM 93.9 °F - 52.0 °F 24% 29.83 in 10.0 mi South 16.1 mph - N/A   Clear
8:54 PM 90.0 °F 87.5 °F 53.1 °F 28% 29.83 in 10.0 mi South 11.5 mph - N/A   Clear
9:54 PM 86.0 °F 84.2 °F 54.0 °F 33% 29.85 in 10.0 mi SSE 8.1 mph - N/A   Clear
10:54 PM 84.0 °F 82.6 °F 54.0 °F 35% 29.86 in 10.0 mi SSE 11.5 mph - N/A   Clear
11:54 PM 82.0 °F - 52.0 °F 35% 29.85 in 10.0 mi SSE 9.2 mph - N/A   Clear